This is the latest recevied weather packets stored in our database for station/object KE1THD. If no packets are shown the sender has not sent any weather packets the latest 1 day(s).
| Time | Temp. | Humidity | Pressure | Rain* | Wind** | Luminosity | Snow |
|---|---|---|---|---|---|---|---|
| 1778016300 | 13.33° C | 38% | 1009.9 hPa | 0 mm | 2.68 m/s, 350° | 201 W/m² | - |
| 1778015997 | 13.33° C | 38% | 1009.8 hPa | 0 mm | 1.34 m/s, 215° | 188 W/m² | - |
| 1778015695 | 13.33° C | 38% | 1009.9 hPa | 0 mm | 1.34 m/s, 310° | 189 W/m² | - |
| 1778015391 | 13.33° C | 38% | 1010.2 hPa | 0 mm | 0.89 m/s, 214° | 172 W/m² | - |
| 1778015088 | 13.33° C | 38% | 1010.2 hPa | 0 mm | 3.13 m/s, 339° | 172 W/m² | - |
| 1778014785 | 13.33° C | 38% | 1009.9 hPa | 0 mm | 2.24 m/s, 359° | 176 W/m² | - |
| 1778014483 | 13.33° C | 37% | 1010 hPa | 0 mm | 3.13 m/s, 326° | 168 W/m² | - |
| 1778014180 | 13.33° C | 39% | 1010.2 hPa | 0 mm | 1.34 m/s, 349° | 211 W/m² | - |
| 1778013878 | 12.78° C | 37% | 1010 hPa | 0 mm | 2.68 m/s, 252° | 244 W/m² | - |
| 1778013575 | 13.33° C | 37% | 1010.2 hPa | 0 mm | 2.24 m/s, 326° | 228 W/m² | - |
| 1778013271 | 13.33° C | 38% | 1010.4 hPa | 0 mm | 0.45 m/s, 221° | 180 W/m² | - |
| 1778012967 | 12.78° C | 39% | 1010.5 hPa | 0 mm | 0.89 m/s, 295° | 235 W/m² | - |
| 1778012664 | 13.33° C | 37% | 1010.5 hPa | 0 mm | 3.13 m/s, 289° | 214 W/m² | - |
| 1778012360 | 13.33° C | 38% | 1010.3 hPa | 0 mm | 3.13 m/s, 334° | 223 W/m² | - |
| 1778012057 | 12.78° C | 37% | 1010.2 hPa | 0 mm | 2.24 m/s, 318° | 248 W/m² | - |
| 1778011756 | 12.78° C | 38% | 1010.4 hPa | 0 mm | 2.68 m/s, 326° | 225 W/m² | - |
| 1778011452 | 12.78° C | 38% | 1010.4 hPa | 0 mm | 0.89 m/s, 229° | 223 W/m² | - |
| 1778011148 | 12.78° C | 37% | 1010.7 hPa | 0 mm | 2.68 m/s, 327° | 239 W/m² | - |
| 1778010845 | 12.78° C | 37% | 1010.5 hPa | 0 mm | 4.47 m/s, 0° | 267 W/m² | - |
| 1778010542 | 12.78° C | 37% | 1010.4 hPa | 0 mm | 2.68 m/s, 327° | 260 W/m² | - |
| 1778010235 | 12.78° C | 37% | 1010.6 hPa | 0 mm | 1.34 m/s, 55° | 246 W/m² | - |
| 1778009935 | 12.78° C | 37% | 1010.5 hPa | 0 mm | 3.13 m/s, 10° | 252 W/m² | - |
| 1778009633 | 12.78° C | 36% | 1010.6 hPa | 0 mm | 3.13 m/s, 22° | 266 W/m² | - |
| 1778009330 | 12.78° C | 36% | 1010.8 hPa | 0 mm | 1.79 m/s, 328° | 242 W/m² | - |
| 1778009028 | 12.78° C | 38% | 1010.7 hPa | 0 mm | 1.79 m/s, 332° | 231 W/m² | - |
* Rain latest hour (hover to see other rain measurements)
** Current wind speed in m/s (hover to see current wind gust speed)